Regional Weather Roundup
Issued by NWS Kansas City/Pleasant Hill, MO

Home | Current Version | Previous Version | Text Only | Print | Product List | Glossary On
Versions: 1 2 3 4 5 6 7 8 9 10 11 12 13 14 15 16 17 18 19 20 21 22 23 24 25 26 27 28 29 30 31 32 33 34 35 36 37 38 39 40 41 42 43 44 45 46 47 48 49 50
485
ASUS43 KEAX 280910
RWREAX

WEATHER ROUNDUP FOR EASTERN KANSAS AND NORTHWEST MISSOURI
NATIONAL WEATHER SERVICE KANSAS CITY/PLEASANT HILL MO
400 AM CDT SUN MAY 28 2017

KSZ040-057-103>105-MOZ028-029-037-043-281000-
...KANSAS CITY METROPOLITAN AREA...

CITY           SKY/WX    TMP DP  RH WIND       PRES   REMARKS
K.C. INTL      CLOUDY    60  58  92 NW9       29.88S
K.C. DOWNTOWN  CLOUDY    63  60  90 NW7       29.87S
LEES SUMMIT    CLOUDY    61  60  97 NW7       29.87S
OLATHE - IXD   CLOUDY    60  59  96 NW10      29.89R
OLATHE - OJC   CLOUDY    60  60 100 NW9       29.88R
LAWRENCE       CLEAR     59  58  96 NW8       29.90S

$$

MOZ001>008-011>017-020>025-030>033-038>040-044>046-053-054-281000-
...NORTHERN AND CENTRAL MISSOURI...

CITY           SKY/WX    TMP DP  RH WIND       PRES   REMARKS
ST. JOSEPH     CLEAR     59  58  96 NW7       29.89F
MOSBY          CLOUDY    61  59  94 NW6       29.86S
WARRENSBURG    CLOUDY    61  59  94 NW7       29.84S
WHITEMAN AFB   CLOUDY    62  62 100 N10       29.81F
CLINTON        CLOUDY    63  63 100 NW6       29.83S
SEDALIA        CLOUDY    63  63 100 NW8       29.83R
WARSAW         NOT AVBL
CHILLICOTHE      N/A     59  56  89 CALM      29.85F
KIRKSVILLE     CLOUDY    59  57  93 NW7       29.82R

$$

MOZ041-047>049-056>058-063>065-088>090-097-281000-
...EASTERN AND SOUTHERN MISSOURI...

CITY           SKY/WX    TMP DP  RH WIND       PRES   REMARKS
ST. LOUIS INTL CLOUDY    65  60  84 W6        29.76R
SPIRIT OF STL  CLOUDY    62  61  96 W5        29.76R
COLUMBIA       FOG       58  58 100 S6        29.79R VSB 3/4
JEFFERSON CITY CLOUDY    62  59  90 VRB3      29.80R
ROLLA          CLOUDY    58  58 100 CALM      29.78F FOG
OSAGE BEACH    FOG       59  59 100 CALM      29.80F VSB 1/4
SPRINGFIELD    CLOUDY    64  63  96 NW10      29.83R
BRANSON        CLOUDY    63  63 100 CALM      29.83R
JOPLIN         CLOUDY    64  62  93 N7        29.83F
WEST PLAINS    CLOUDY    63  61  93 SW3       29.83

$$

IAZ060-094-KSZ022-034>040-054-083-096-NEZ052-066-093-281000-
...KANSAS...SOUTHEAST NEBRASKA AND IOWA...

CITY           SKY/WX    TMP DP  RH WIND       PRES   REMARKS
TOPEKA         MOCLDY    61  59  93 NW8       29.90F
MANHATTAN      PTCLDY    60  57  89 CALM      29.94F
EMPORIA        CLEAR     60  58  92 NW8       29.90F
CHANUTE        CLOUDY    63  60  90 N9        29.85F
WICHITA        MOCLDY    63  58  83 N10       29.92F
OMAHA          PTCLDY    53  49  86 CALM      29.90F
LINCOLN        CLEAR     55  50  83 S5        29.93F
FALLS CITY     CLEAR     57  55  93 W8        29.91S
LAMONI         CLEAR     56  54  93 NW8       29.87S
DES MOINES     CLOUDY    58  55  90 W3        29.85F

$$





USA.gov is the U.S. government's official web portal to all federal, state and local government web resources and services.